Grand Forks, ND

11:24 AM CDT on September 24, 2017 (GMT -0500)
Grand Forks International

Weather History for KGFK - September, 2014

Change the Weather History Date:

Saturday, September 6, 2014

  Actual Average Record
Temperature  
Mean Temperature 63 °F 61 °F  
Max Temperature 80 °F 74 °F 99 °F (1976)
Min Temperature 46 °F 48 °F 31 °F (1956)
Degree Days  
Heating Degree Days 2 5  
Month to date heating degree days 10 28  
Since 1 July heating degree days 64 110  
Cooling Degree Days 0 2  
Month to date cooling degree days 0 12  
Year to date cooling degree days 361 364  
Growing Degree Days 13 (Base 50)    
Moisture  
Dew Point 48 °F    
Average Humidity 62    
Maximum Humidity 93    
Minimum Humidity 30    
Precipitation  
Precipitation 0.00 in 0.08 in 2.58 in (1981)
Month to date precipitation 0.12 0.47  
Year to date precipitation 20.80 15.70  
Snow  
Snow 0.00 in 0.00 in 0.00 in ()
Month to date snowfall 0.0 0.0  
Since 1 July snowfall 0.0 0.0  
Since 1 September snowfall 0.0 0.0  
Snow Depth 0.00 in    
Sea Level Pressure  
Sea Level Pressure 30.08 in    
Wind  
Wind Speed 7 mph (WSW)    
Max Wind Speed 18 mph    
Max Gust Speed 26 mph    
Visibility 10 miles    
Events      
T = Trace of Precipitation, MM = Missing Value Source: NWS Daily Summary

Daily Weather History Graph

Daily Weather History Graph

Search for Another Location

Airport or City:

Trip Planner

Search our weather history database for the weather conditions in past years. The results will help you decide how hot, cold, wet, or windy it might be!

Date:

Astronomy

Sep. 06, 2014 Rise Set
Actual Time 6:53 AM CDT 7:59 PM CDT
Civil Twilight 6:21 AM CDT 8:31 PM CDT
Nautical Twilight 5:43 AM CDT 9:09 PM CDT
Astronomical Twilight 5:02 AM CDT 9:49 PM CDT
Moon 6:23 PM CDT (9/6) 3:47 AM CDT (9/6)
Length of Visible Light 14h 09m
Length of Day
13h 05m
Waxing Gibbous, 92% of the Moon is Illuminated
Sep 6
Waxing Gibbous
Sep 8
Full
Sep 15
Last Quarter
Sep 24
New
Oct 1
First Quarter

Hourly Weather History & Observations

Time (CDT) Temp. Windchill Dew Point Humidity Pressure Visibility Wind Dir Wind Speed Gust Speed Precip Events Conditions
12:53 AM 50.0 °F - 46.9 °F 89% 30.13 in 10.0 mi West 3.5 mph - N/A   Clear
1:53 AM 48.9 °F - 46.0 °F 90% 30.14 in 10.0 mi West 6.9 mph - N/A   Clear
2:53 AM 48.2 °F - 46.4 °F 93% 30.12 in 10.0 mi West 5.8 mph - N/A   Clear
3:53 AM 48.2 °F - 44.6 °F 87% 30.13 in 10.0 mi WSW 3.5 mph - N/A   Clear
4:53 AM 48.9 °F - 46.0 °F 90% 30.14 in 10.0 mi WSW 5.8 mph - N/A   Clear
5:53 AM 48.0 °F - 45.0 °F 89% 30.15 in 10.0 mi WSW 6.9 mph - N/A   Scattered Clouds
6:53 AM 46.4 °F 43.5 °F 44.6 °F 93% 30.14 in 10.0 mi West 5.8 mph - N/A   Mostly Cloudy
7:53 AM 50.0 °F - 46.9 °F 89% 30.16 in 10.0 mi Calm Calm - N/A   Scattered Clouds
8:53 AM 55.0 °F - 50.0 °F 83% 30.16 in 10.0 mi Calm Calm - N/A   Partly Cloudy
9:53 AM 64.0 °F - 53.1 °F 67% 30.14 in 10.0 mi SSW 4.6 mph - N/A   Partly Cloudy
10:53 AM 69.1 °F - 51.1 °F 53% 30.13 in 10.0 mi SSW 12.7 mph - N/A   Partly Cloudy
11:53 AM 72.0 °F - 50.0 °F 46% 30.12 in 10.0 mi SW 8.1 mph - N/A   Scattered Clouds
12:53 PM 75.0 °F - 48.9 °F 40% 30.09 in 10.0 mi SW 8.1 mph 17.3 mph N/A   Mostly Cloudy
1:53 PM 75.9 °F - 50.0 °F 40% 30.07 in 10.0 mi SSW 9.2 mph - N/A   Partly Cloudy
2:53 PM 78.1 °F - 51.1 °F 39% 30.04 in 10.0 mi SW 12.7 mph 18.4 mph N/A   Scattered Clouds
3:53 PM 79.0 °F - 46.9 °F 32% 30.02 in 10.0 mi West 12.7 mph 21.9 mph N/A   Scattered Clouds
4:53 PM 80.1 °F - 46.0 °F 30% 30.01 in 10.0 mi WSW 12.7 mph 23.0 mph N/A   Scattered Clouds
5:53 PM 79.0 °F - 45.0 °F 30% 30.00 in 10.0 mi West 12.7 mph 19.6 mph N/A   Scattered Clouds
6:53 PM 75.9 °F - 46.9 °F 36% 29.99 in 10.0 mi West 8.1 mph - N/A   Partly Cloudy
7:53 PM 69.1 °F - 48.9 °F 49% 29.99 in 10.0 mi SW 6.9 mph - N/A   Partly Cloudy
8:53 PM 62.1 °F - 48.9 °F 62% 29.99 in 10.0 mi SW 6.9 mph - N/A   Clear
9:53 PM 63.0 °F - 48.9 °F 60% 29.99 in 10.0 mi SW 8.1 mph - N/A   Clear
10:53 PM 60.1 °F - 48.9 °F 67% 29.99 in 10.0 mi SW 8.1 mph - N/A   Clear
11:53 PM 55.9 °F - 48.9 °F 77% 30.00 in 10.0 mi WNW 4.6 mph - N/A   Clear